HB1PM LSZP-LSZB

Flight info

Callsign HB1PM
Flight time 0h 9m
Altitude 6000
Route ROTOS
Aircraft C172/L-SFG/C

Departure

Time 2026-04-22 18:04
Airport Biel-Kappelen Airfield (LSZP)

Arrival

Time 2026-04-22 18:13
Airport Bern Airport (LSZB)
Time Latitude Longitude Altitude Speed Heading
2026-04-22 17:51 47.09028 7.29026 1444 ft 0 kts 140°
2026-04-22 17:51 47.09028 7.29025 1444 ft 0 kts 140°
2026-04-22 17:51 47.09029 7.29025 1444 ft 0 kts 140°
2026-04-22 17:54 47.09029 7.29024 1444 ft 0 kts 140°
2026-04-22 17:55 47.09030 7.29024 1444 ft 0 kts 140°
2026-04-22 17:58 47.09030 7.29023 1444 ft 0 kts 140°
2026-04-22 18:00 47.09031 7.29023 1444 ft 0 kts 140°
2026-04-22 18:01 47.09038 7.29062 1438 ft 6 kts 83°
2026-04-22 18:02 47.09022 7.29137 1443 ft 8 kts 164°
2026-04-22 18:02 47.09008 7.29121 1443 ft 0 kts 231°
2026-04-22 18:03 47.08973 7.29066 1443 ft 27 kts 227°
2026-04-22 18:03 47.08743 7.28680 1449 ft 70 kts 229°
2026-04-22 18:03 47.08298 7.28225 1553 ft 84 kts 202°
2026-04-22 18:04 47.07726 7.27808 1662 ft 99 kts 200°
2026-04-22 18:04 47.07240 7.27143 1901 ft 100 kts 258°
2026-04-22 18:04 47.07232 7.26093 2018 ft 113 kts 276°
2026-04-22 18:04 47.07051 7.24964 2214 ft 114 kts 239°
2026-04-22 18:05 47.06484 7.24125 2335 ft 123 kts 216°
2026-04-22 18:05 47.05771 7.23402 2433 ft 123 kts 183°
2026-04-22 18:05 47.05035 7.23714 2540 ft 105 kts 130°
2026-04-22 18:05 47.04729 7.24507 2718 ft 94 kts 87°
2026-04-22 18:06 47.04749 7.25502 2708 ft 104 kts 78°
2026-04-22 18:06 47.04842 7.26534 2776 ft 101 kts 76°
2026-04-22 18:06 47.04929 7.27555 2833 ft 104 kts 95°
2026-04-22 18:06 47.04717 7.28581 2897 ft 104 kts 98°
2026-04-22 18:07 47.04576 7.29257 2892 ft 106 kts 98°
2026-04-22 18:07 47.04276 7.30624 2946 ft 108 kts 99°
2026-04-22 18:07 47.04051 7.31677 2949 ft 107 kts 99°
2026-04-22 18:07 47.03837 7.32693 3091 ft 103 kts 97°
2026-04-22 18:08 47.03615 7.33662 3226 ft 96 kts 99°
2026-04-22 18:08 47.03403 7.34528 3371 ft 85 kts 99°
2026-04-22 18:08 47.03210 7.35356 3513 ft 89 kts 98°
2026-04-22 18:08 47.03021 7.36214 3608 ft 90 kts 96°
2026-04-22 18:09 47.02824 7.37093 3709 ft 92 kts 99°
2026-04-22 18:09 47.02627 7.37989 3809 ft 93 kts 99°
2026-04-22 18:09 47.02428 7.38888 3893 ft 89 kts 102°
2026-04-22 18:09 47.02201 7.39772 3838 ft 108 kts 112°
2026-04-22 18:10 47.01633 7.40654 3660 ft 129 kts 134°
2026-04-22 18:10 47.00907 7.41472 3459 ft 131 kts 136°
2026-04-22 18:10 47.00161 7.42179 3216 ft 127 kts 151°
2026-04-22 18:10 46.99373 7.42691 3018 ft 121 kts 147°
2026-04-22 18:11 46.98591 7.43156 2892 ft 125 kts 150°
2026-04-22 18:11 46.97766 7.43692 2776 ft 132 kts 147°
2026-04-22 18:11 46.96922 7.44253 2651 ft 133 kts 149°
2026-04-22 18:11 46.96079 7.44809 2591 ft 133 kts 151°
2026-04-22 18:12 46.95287 7.45436 2559 ft 120 kts 139°
2026-04-22 18:12 46.94609 7.46136 2496 ft 123 kts 143°
2026-04-22 18:12 46.94132 7.46569 2448 ft 122 kts 139°
2026-04-22 18:12 46.93285 7.47561 2283 ft 122 kts 144°
2026-04-22 18:13 46.92614 7.48293 2051 ft 114 kts 136°
2026-04-22 18:13 46.92096 7.48847 1840 ft 80 kts 120°
2026-04-22 18:13 46.91721 7.49332 1696 ft 67 kts 134°
2026-04-22 18:13 46.91430 7.49703 1674 ft 43 kts 143°
2026-04-22 18:14 46.91265 7.49896 1676 ft 19 kts 143°
2026-04-22 18:14 46.91274 7.49988 1679 ft 7 kts 56°
2026-04-22 18:14 46.91277 7.50022 1681 ft 4 kts 120°
2026-04-22 18:14 46.91232 7.50080 1719 ft 17 kts 137°
2026-04-22 18:15 46.91160 7.50212 1720 ft 14 kts 66°
2026-04-22 18:15 46.91174 7.50248 1724 ft 0 kts 53°
2026-04-22 18:27 46.91174 7.50247 1716 ft 0 kts 53°